Terminal Aerodrome Forecast
Issued by NWS Twin Cities, MN

Home | Current Version | Previous Version | Graphics & Text | Print | Product List | Glossary On
Versions: 1 2 3 4 5 6 7 8 9 10 11 12 13 14 15 16 17 18 19 20
000
FTUS43 KMPX 300500
TAFEAU
TAF
KEAU 300520Z 3006/3106 VRB03KT 6SM -SHRA SCT025 BKN050
      TEMPO 3007/3010 BKN020
     FM301000 00000KT 5SM BR VCSH OVC007
     FM301200 00000KT 3SM BR OVC004
     FM301600 35005KT P6SM BKN010 OVC020
     FM301900 34005KT P6SM BKN025
     FM302100 VRB03KT P6SM SCT025=

USA.gov is the U.S. government's official web portal to all federal, state and local government web resources and services.